User: anonymous   Login
Location: Anumalkud?ru
(16.4847°N, 80.6636°E)
Time: 07:58:15
(UTC+00:00)
Language:

ATLAS 2AS CENTAUR RB - Orbit

View from above orbital plane
View from above orbital plane
View from above satellite
View from above satellite

Ground track
Ground track

The orbit is defined by the following mean orbital elements,

1 28155U          26157.93947288 +.00000000 +00000-0 +99159-3 0 00001
2 28155  12.6615 258.6674 6194109 308.6237  10.6495  3.71089908    01
Epoch (UTC): 06 June 2026 22:32:50
Eccentricity: 0.6194109
inclination: 12.6615°
perigee height: 329 km
apogee height: 22161 km
right ascension of ascending node: 258.6674°
argument of perigee: 308.6237°
revolutions per day: 3.71089908
mean anomaly at epoch: 10.6495°

The dashed part of the orbit path shows where the satellite is in the earth's shadow,  

DLR